TimeEDT,TemperatureF,Dew PointF,Humidity,Sea Level PressureIn,VisibilityMPH,Wind Direction,Wind SpeedMPH,Gust SpeedMPH,PrecipitationIn,Events,Conditions,WindDirDegrees,DateUTC
12:53 AM,66.9,63.0,87,29.89,10.0,SSW,4.6,-,N/A,,Clear,200,2013-08-02 04:53:00
1:53 AM,66.9,63.0,87,29.89,10.0,South,3.5,-,N/A,,Clear,190,2013-08-02 05:53:00
2:53 AM,64.9,62.1,90,29.89,10.0,South,3.5,-,N/A,,Clear,190,2013-08-02 06:53:00
3:53 AM,64.0,62.1,93,29.90,8.0,SW,4.6,-,N/A,,Clear,220,2013-08-02 07:53:00
4:53 AM,64.0,61.0,90,29.91,9.0,South,3.5,-,N/A,,Clear,190,2013-08-02 08:53:00
5:53 AM,64.0,61.0,90,29.92,9.0,South,3.5,-,N/A,,Clear,180,2013-08-02 09:53:00
6:33 AM,62.6,60.8,94,29.94,2.0,Calm,Calm,-,N/A,,Clear,0,2013-08-02 10:33:00
6:42 AM,60.8,60.8,100,29.94,4.0,Calm,Calm,-,0.01,,Clear,0,2013-08-02 10:42:00
6:53 AM,62.1,60.1,93,29.94,3.0,Calm,Calm,-,0.01,,Clear,0,2013-08-02 10:53:00
7:53 AM,69.1,63.0,81,29.96,10.0,WSW,3.5,-,N/A,,Clear,250,2013-08-02 11:53:00
8:53 AM,72.0,63.0,73,29.97,10.0,South,5.8,-,N/A,,Clear,180,2013-08-02 12:53:00
9:53 AM,75.0,62.1,64,29.96,10.0,WSW,6.9,-,N/A,,Clear,250,2013-08-02 13:53:00
10:53 AM,75.9,61.0,60,29.97,10.0,SW,6.9,-,N/A,,Scattered Clouds,220,2013-08-02 14:53:00
11:53 AM,78.1,59.0,52,29.97,10.0,West,8.1,-,N/A,,Scattered Clouds,280,2013-08-02 15:53:00
12:53 PM,81.0,57.9,45,29.97,10.0,West,12.7,-,N/A,,Clear,260,2013-08-02 16:53:00
1:53 PM,84.0,57.9,41,29.96,10.0,West,11.5,18.4,N/A,,Clear,280,2013-08-02 17:53:00
2:53 PM,84.9,55.0,36,29.96,10.0,West,13.8,-,N/A,,Clear,270,2013-08-02 18:53:00
3:53 PM,82.9,55.0,38,29.95,10.0,West,11.5,-,N/A,,Partly Cloudy,260,2013-08-02 19:53:00
4:53 PM,84.9,53.1,33,29.94,10.0,West,12.7,-,N/A,,Clear,280,2013-08-02 20:53:00
5:53 PM,84.0,54.0,35,29.93,10.0,West,11.5,-,N/A,,Clear,260,2013-08-02 21:53:00
6:53 PM,82.0,55.0,39,29.93,10.0,West,12.7,-,N/A,,Clear,260,2013-08-02 22:53:00
7:53 PM,78.1,55.0,45,29.94,10.0,West,8.1,-,N/A,,Clear,260,2013-08-02 23:53:00
8:53 PM,73.9,57.0,55,29.95,10.0,SSW,3.5,-,N/A,,Clear,210,2013-08-03 00:53:00
9:53 PM,72.0,57.0,59,29.96,10.0,SSW,4.6,-,N/A,,Clear,200,2013-08-03 01:53:00
10:53 PM,66.9,57.9,73,29.97,10.0,SSW,3.5,-,N/A,,Clear,200,2013-08-03 02:53:00
11:53 PM,69.1,57.9,68,29.97,10.0,WSW,3.5,-,N/A,,Clear,240,2013-08-03 03:53:00